カタログに戻る

COSMOS 1275 DEB

運用中PO
NORAD 39960·DEBRIS·🇷🇺 Russia

打ち上げ Jun 4, 1981 から Plesetsk Cosmodrome

Loading…

次のパス (今後24時間)

TLE

最新Source: Space-Track

元期: Sep 12, 2026, 08:01 UTC

1 39960U 81053NW  26255.33459165  .00000424  00000-0  56765-3 0  9992
2 39960  83.1420 116.7759 0237530 156.2920 204.9386 13.46899979583900

AllMySatでCOSMOS 1275 DEBをリアルタイム追跡

Download on the App Store